Tracking 35331 objects as of 16-Sep-2026
HD Live streaming from Space Station
objects crossing your sky now

STARLINK-3941

Track STARLINK-3941 now!
10-day predictions
STARLINK-3941 is classified as:


NORAD ID: 52638
Int'l Code: 2022-052AS
Launch date: May 14, 2022
Source: United States (US)
Launch site: AIR FORCE EASTERN TEST RANGE (AFETR)
Your satellite tracking list
Your tracking list is empty




NASA's NSSDC Master Catalog

Two Line Element Set (TLE):
1 52638U 22052AS  26258.64948902  .00000389  00000-0  22652-4 0  9991
2 52638  53.1617 122.1059 0001624  86.1454 273.9734 15.34390827240676
Source of the keplerian elements: AFSPC